Date String (YYYY-MM-DD hh:mm:ss) UTC,Instrument flags,Ambient pressure (hPa),Sample flow (lpm),Bypass flow (lpm),Sample temperature (°C),Ambient temperature (°C),ASC tube jacket temperature (°C),LED temperature (°C),Box temperature (°C),Sample RH (%),Span deviation,Mass concentration (μg/m³),Mass concentration (μg/m³),Mass concentration (μg/m³)
DateTimeUTC,F1_M11,P_M11,Q1_M11,Q2_M11,T1_M11,T2_M11,T3_M11,T4_M11,T5_M11,U1_M11,ZSPAN_M11,X0_M11,X2_M11,X1_M11
2022-02-20 18:00:00,,0819.3,5.00,0.00,22.0,21.5,00.0,30.9,23.8,06.3,0000.0,0002.36,0000.89,0000.51
2022-02-20 18:01:00,,0819.3,5.01,0.00,22.0,21.5,00.0,30.9,23.8,06.1,0000.0,0002.40,0000.86,0000.50
2022-02-20 18:02:00,,0819.3,4.99,0.00,22.0,21.5,00.0,30.9,23.8,06.0,0000.0,0002.24,0000.86,0000.51
2022-02-20 18:03:00,,0819.3,5.00,0.00,22.0,21.6,00.0,30.9,23.8,05.8,0000.0,0001.87,0000.84,0000.50
2022-02-20 18:04:00,,0819.3,5.01,0.00,22.0,21.6,00.0,30.9,23.9,05.8,0000.0,0001.82,0000.82,0000.49
2022-02-20 18:05:00,,0819.3,4.99,0.00,22.1,21.6,00.0,31.0,23.9,05.9,0000.0,0001.88,0000.86,0000.49
2022-02-20 18:06:00,,0819.3,5.00,0.00,22.1,21.7,00.0,31.0,23.9,05.7,0000.0,0001.68,0000.84,0000.49
2022-02-20 18:07:00,,0819.2,5.00,0.00,22.1,21.7,00.0,31.0,24.0,05.8,0000.0,0001.70,0000.86,0000.49
2022-02-20 18:08:00,,0819.2,5.02,0.00,22.2,21.8,00.0,31.0,24.0,06.2,0000.0,0001.67,0000.83,0000.50
2022-02-20 18:09:00,,0819.2,4.99,0.00,22.2,21.8,00.0,31.0,24.1,05.9,0000.0,0001.60,0000.81,0000.50
2022-02-20 18:10:00,,0819.2,5.00,0.00,22.2,21.8,00.0,31.0,24.1,06.1,0000.0,0001.69,0000.80,0000.49
2022-02-20 18:11:00,,0819.2,4.99,0.00,22.3,21.9,00.0,31.1,24.2,06.3,0000.0,0001.69,0000.78,0000.48
2022-02-20 18:12:00,,0819.3,5.01,0.00,22.3,21.9,00.0,31.1,24.2,06.0,0000.0,0001.60,0000.77,0000.47
2022-02-20 18:13:00,,0819.3,5.00,0.00,22.4,22.0,00.0,31.1,24.3,06.3,0000.0,0001.48,0000.75,0000.45
2022-02-20 18:14:00,,0819.2,5.00,0.00,22.4,22.0,00.0,31.2,24.3,06.1,0000.0,0001.44,0000.75,0000.45
2022-02-20 18:15:00,,0819.2,5.00,0.00,22.5,22.0,00.0,31.2,24.3,06.1,0000.0,0001.36,0000.70,0000.44
2022-02-20 18:16:00,,0819.1,4.99,0.00,22.5,22.1,00.0,31.2,24.4,05.9,0000.0,0001.77,0000.67,0000.44
2022-02-20 18:17:00,,0819.1,4.99,0.00,22.6,22.1,00.0,31.3,24.5,06.1,0000.0,0001.81,0000.65,0000.43
2022-02-20 18:18:00,,0819.1,5.00,0.00,22.6,22.1,00.0,31.3,24.5,06.3,0000.0,0001.79,0000.64,0000.42
2022-02-20 18:19:00,,0819.1,5.00,0.00,22.6,22.2,00.0,31.3,24.6,06.2,0000.0,0001.72,0000.63,0000.42
2022-02-20 18:20:00,,0819.1,4.99,0.00,22.7,22.2,00.0,31.4,24.6,06.1,0000.0,0001.70,0000.63,0000.42
2022-02-20 18:21:00,,0819.0,5.01,0.00,22.7,22.3,00.0,31.4,24.6,06.4,0000.0,0001.63,0000.64,0000.43
2022-02-20 18:22:00,,0819.0,5.01,0.00,22.8,22.3,00.0,31.4,24.7,06.2,0000.0,0001.72,0000.67,0000.43
2022-02-20 18:23:00,,0819.0,5.00,0.00,22.8,22.4,00.0,31.5,24.7,06.0,0000.0,0001.92,0000.69,0000.43
2022-02-20 18:24:00,,0819.0,5.00,0.00,22.8,22.4,00.0,31.5,24.8,06.1,0000.0,0001.95,0000.70,0000.44
2022-02-20 18:25:00,,0818.9,5.00,0.00,22.9,22.4,00.0,31.5,24.8,05.9,0000.0,0002.01,0000.71,0000.44
2022-02-20 18:26:00,,0819.0,4.99,0.00,22.9,22.4,00.0,31.6,24.9,05.5,0000.0,0002.04,0000.70,0000.43
2022-02-20 18:27:00,,0819.0,5.01,0.00,23.0,22.5,00.0,31.6,24.9,05.7,0000.0,0001.66,0000.69,0000.44
2022-02-20 18:28:00,,0818.9,4.99,0.00,23.0,22.5,00.0,31.6,24.9,05.8,0000.0,0001.45,0000.69,0000.44
2022-02-20 18:29:00,,0818.9,4.99,0.00,23.0,22.6,00.0,31.7,25.0,05.9,0000.0,0001.51,0000.67,0000.44
2022-02-20 18:30:00,,0818.9,5.01,0.00,23.1,22.6,00.0,31.7,25.0,05.9,0000.0,0001.48,0000.65,0000.44
2022-02-20 18:31:00,,0819.0,5.00,0.00,23.1,22.6,00.0,31.8,25.0,05.7,0000.0,0001.49,0000.65,0000.43
2022-02-20 18:32:00,,0818.9,4.99,0.00,23.2,22.7,00.0,31.8,25.1,06.3,0000.0,0001.92,0000.64,0000.43
2022-02-20 18:33:00,,0818.8,5.02,0.00,23.2,22.7,00.0,31.8,25.1,05.7,0000.0,0002.06,0000.62,0000.44
2022-02-20 18:34:00,,0818.9,4.99,0.00,23.2,22.7,00.0,31.9,25.2,05.9,0000.0,0001.80,0000.59,0000.44
2022-02-20 18:35:00,,0818.9,4.99,0.00,23.3,22.8,00.0,31.9,25.2,05.9,0000.0,0001.71,0000.56,0000.43
2022-02-20 18:36:00,,0818.8,5.01,0.00,23.3,22.8,00.0,31.9,25.2,05.7,0000.0,0001.77,0000.57,0000.44
2022-02-20 18:37:00,,0818.8,4.97,0.00,23.3,22.9,00.0,32.0,25.3,05.6,0000.0,0001.82,0000.56,0000.45
2022-02-20 18:38:00,,0818.8,4.99,0.00,23.4,22.9,00.0,32.0,25.3,05.7,0000.0,0001.86,0000.58,0000.45
2022-02-20 18:39:00,,0818.8,5.01,0.00,23.4,22.9,00.0,32.1,25.3,05.7,0000.0,0001.89,0000.58,0000.44
2022-02-20 18:40:00,,0818.8,4.99,0.00,23.4,23.0,00.0,32.1,25.4,05.6,0000.0,0001.74,0000.57,0000.44
2022-02-20 18:41:00,,0818.8,5.02,0.00,23.4,23.0,00.0,32.1,25.4,05.8,0000.0,0001.79,0000.59,0000.44
2022-02-20 18:42:00,,0818.8,4.99,0.00,23.5,23.0,00.0,32.2,25.5,06.2,0000.0,0001.87,0000.62,0000.44
2022-02-20 18:43:00,,0818.8,5.00,0.00,23.5,23.0,00.0,32.2,25.5,06.3,0000.0,0001.44,0000.64,0000.44
2022-02-20 18:44:00,,0818.8,5.02,0.00,23.6,23.1,00.0,32.2,25.5,06.3,0000.0,0001.23,0000.64,0000.43
2022-02-20 18:45:00,,0818.8,5.00,0.00,23.6,23.1,00.0,32.3,25.5,05.9,0000.0,0001.27,0000.65,0000.43
2022-02-20 18:46:00,,0818.8,4.99,0.00,23.6,23.1,00.0,32.3,25.6,05.7,0000.0,0001.39,0000.68,0000.43
2022-02-20 18:47:00,,0818.9,5.02,0.00,23.7,23.1,00.0,32.3,25.6,05.6,0000.0,0001.43,0000.69,0000.43
2022-02-20 18:48:00,,0818.8,4.99,0.00,23.7,23.2,00.0,32.4,25.6,05.6,0000.0,0001.34,0000.70,0000.43
2022-02-20 18:49:00,,0818.8,5.02,0.00,23.7,23.2,00.0,32.4,25.6,05.5,0000.0,0001.34,0000.69,0000.43
2022-02-20 18:50:00,,0818.8,4.99,0.00,23.8,23.2,00.0,32.4,25.7,05.7,0000.0,0001.33,0000.71,0000.44
2022-02-20 18:51:00,,0818.7,5.01,0.00,23.8,23.3,00.0,32.5,25.7,05.8,0000.0,0001.36,0000.73,0000.45
2022-02-20 18:52:00,,0818.7,4.99,0.00,23.8,23.3,00.0,32.5,25.7,05.7,0000.0,0001.30,0000.71,0000.45
2022-02-20 18:53:00,,0818.8,5.02,0.00,23.9,23.3,00.0,32.5,25.9,05.8,0000.0,0001.19,0000.66,0000.44
2022-02-20 18:54:00,,0818.7,4.99,0.00,23.9,23.3,00.0,32.6,25.9,05.5,0000.0,0001.17,0000.64,0000.44
2022-02-20 18:55:00,,0818.6,5.00,0.00,23.9,23.4,00.0,32.6,25.9,05.3,0000.0,0001.18,0000.65,0000.44
2022-02-20 18:56:00,,0818.5,5.02,0.00,24.0,23.4,00.0,32.6,25.9,05.3,0000.0,0001.16,0000.65,0000.45
2022-02-20 18:57:00,,0818.5,5.00,0.00,24.0,23.4,00.0,32.7,26.0,05.6,0000.0,0001.05,0000.64,0000.45
2022-02-20 18:58:00,,0818.6,4.99,0.00,24.0,23.5,00.0,32.7,26.0,05.8,0000.0,0000.92,0000.62,0000.44
2022-02-20 18:59:00,,0818.5,5.01,0.00,24.1,23.5,00.0,32.7,26.0,05.8,0000.0,0000.92,0000.62,0000.44
